QPF
0.00 0.00 0.00 0.00 0.00 0.00 0.00 0.00 0.00 0.00 0.00 0.00 0.00 -0.00 0.00 0.00 0.00 0.00 0.00 0.01 0.01 0.01 0.01 0.01 0.01 0.01 0.01 0.00 0.00 0.00 0.00 0.00 -0.00 0.00 0.00 0.00 0.00 0.00 0.00 0.00 0.00 0.00
-0.00 -0.00 0.00 -0.00 0.00 0.00 0.00 0.00 0.00 0.00 0.00 0.00 0.00 0.00 0.00 -0.00 0.00 0.00 0.00 0.00 0.00 0.01 0.01 0.01 0.01 0.00 0.00 0.00 0.00 -0.00 0.00 0.00 -0.00 0.00 -0.00 0.00 -0.00 0.00 0.00 0.00 0.00 0.00
0.00 0.00 0.00 0.00 0.00 0.00 0.00 0.00 0.00 0.00 0.00 0.00 -0.00 0.00 -0.00 0.00 0.00 0.00 0.00 0.00 0.00 0.00 0.00 0.00 0.00 0.00 0.00 -0.00 -0.00 0.00 0.00 0.00 -0.00 0.00 0.00 0.00 0.00 0.00 0.00 0.00 -0.00 -0.00
0.00 0.00 -0.00 0.00 0.00 0.00 0.00 0.00 0.00 0.00 0.00 0.00 0.00 0.00 0.00 0.00 0.00 -0.00 0.00 0.00 0.00 0.00 0.00 0.00 0.00 0.00 0.00 0.00 0.00 0.00 0.00 0.00 0.00 0.00 0.00 0.00 0.00 0.00 0.00 -0.00 -0.00 -0.00
0.00 0.00 0.00 0.00 0.00 0.00 0.00 0.00 0.01 0.00 0.00 0.00 0.00 0.00 0.00 0.00 0.00 -0.00 0.00 0.00 0.00 0.00 0.00 0.00 0.00 0.00 -0.00 0.00 -0.00 0.00 -0.00 0.00 0.00 -0.00 0.00 0.00 -0.00 0.00 0.00 0.00 0.00 0.00
0.00 -0.00 0.00 0.00 -0.00 0.00 0.00 0.00 0.00 0.00 0.00 0.00 0.00 0.00 0.00 0.00 -0.00 0.00 0.00 0.00 0.00 0.00 0.00 0.00 0.00 0.00 0.00 0.00 0.00 0.00 0.00 0.00 -0.00 0.00 0.00 0.00 0.00 0.00 0.00 0.00 0.00 0.00
0.00 0.00 -0.00 0.00 0.00 0.00 0.00 0.00 0.00 0.00 0.00 0.00 0.00 0.00 0.00 0.00 0.00 0.00 0.00 0.00 -0.00 0.00 0.00 0.00 0.00 -0.00 -0.00 0.00 0.00 0.00 0.00 0.00 -0.00 0.00 0.00 -0.00 -0.00 0.00 0.00 0.00 0.00 -0.00
0.00 0.00 0.00 0.00 0.00 0.00 0.00 0.00 0.00 0.00 0.00 0.00 0.00 0.00 -0.00 0.00 0.00 0.00 0.00 0.00 0.00 0.00 0.00 -0.00 0.00 0.00 0.00 0.00 -0.00 0.00 0.00 0.00 -0.00 0.00 -0.00 -0.00 -0.00 0.00 0.00 0.00 0.00 0.00
0.01 0.00 0.00 0.00 0.00 0.00 0.00 0.00 0.00 0.00 0.00 0.00 0.00 0.00 0.00 -0.00 0.00 -0.00 0.00 -0.00 0.00 0.00 -0.00 0.00 0.00 0.00 -0.00 0.00 0.00 0.00 0.00 0.00 -0.00 0.00 0.00 0.00 0.00 0.00 0.00 -0.00 0.00 0.00
0.00 0.00 0.00 0.00 0.00 0.00 0.00 0.00 0.00 0.00 0.00 0.00 0.00 0.00 0.00 0.00 0.00 0.00 0.00 0.00 -0.00 -0.00 0.00 0.00 0.00 0.00 0.00 0.00 0.00 0.00 -0.00 0.00 0.00 0.00 0.00 0.00 0.00 0.00 0.00 0.00 0.00 0.00
0.01 0.01 0.00 0.00 0.00 0.00 0.00 0.00 0.00 0.00 0.00 0.00 0.00 0.00 0.00 -0.00 0.00 -0.00 0.00 -0.00 0.00 -0.00 -0.00 0.00 0.00 0.00 0.00 0.00 0.00 0.00 0.00 0.00 -0.00 0.00 0.00 0.00 0.00 0.00 0.00 -0.00 0.00 0.00
0.01 0.01 0.01 0.00 0.00 0.00 0.00 0.00 0.00 0.00 0.00 0.00 0.00 0.00 -0.00 -0.00 0.00 0.00 0.00 -0.00 0.00 -0.00 -0.00 0.00 0.00 0.00 -0.00 0.00 0.00 0.00 0.00 0.00 0.00 0.00 -0.00 0.00 0.00 -0.00 0.00 0.00 0.00 0.00
0.01 0.01 0.00 0.00 0.00 0.00 0.00 0.00 0.00 0.00 0.00 0.00 0.00 0.00 -0.00 0.00 0.00 0.00 0.00 0.00 0.00 0.00 -0.00 0.00 -0.00 -0.00 0.00 0.00 0.00 0.00 0.00 0.00 0.00 -0.00 -0.00 0.00 0.00 0.00 0.00 0.00 0.00 -0.00
0.00 0.00 0.01 0.00 0.00 0.00 0.00 0.00 0.01 0.00 0.00 0.00 0.00 0.00 -0.00 0.00 0.00 0.00 0.00 0.00 0.00 0.00 0.00 0.00 0.00 0.00 0.00 0.00 0.00 0.00 0.00 -0.00 0.00 0.00 0.00 -0.00 0.00 0.00 -0.00 -0.00 0.00 -0.00
0.00 0.00 0.00 0.00 0.00 0.01 0.01 0.00 0.00 0.00 0.00 0.00 0.00 -0.00 -0.00 0.00 0.00 0.00 0.00 0.00 0.00 0.00 -0.00 0.00 0.00 0.00 0.00 0.00 0.00 -0.00 0.00 -0.00 -0.00 0.00 -0.00 0.00 0.00 -0.00 -0.00 -0.00 0.00 0.00
0.00 0.00 0.00 0.01 0.01 0.01 0.01 0.01 0.01 0.01 0.00 0.00 0.00 0.00 0.00 0.00 0.00 0.00 0.00 0.00 0.00 0.00 -0.00 -0.00 0.00 -0.00 -0.00 -0.00 -0.00 -0.00 0.00 -0.00 0.00 0.00 0.00 0.00 -0.00 0.00 0.00 0.00 0.00 -0.00
0.00 0.00 0.01 0.01 0.01 0.01 0.00 0.01 0.01 0.01 0.00 0.00 0.00 0.00 0.00 -0.00 0.00 0.00 0.00 -0.00 0.00 0.00 -0.00 0.00 0.00 0.00 -0.00 -0.00 0.00 -0.00 0.00 -0.00 -0.00 0.00 0.00 0.00 0.00 0.00 0.00 0.00 0.00 -0.00
0.00 0.01 0.01 0.01 0.01 0.01 0.00 0.01 0.00 0.00 0.01 0.00 0.00 0.00 0.00 0.00 0.00 0.00 0.00 0.00 0.00 0.00 0.00 -0.00 0.00 0.00 0.00 -0.00 0.00 0.00 -0.00 0.00 0.00 -0.00 0.00 0.00 0.00 0.00 -0.00 0.00 0.00 0.00
0.01 0.01 0.01 0.01 0.00 0.01 0.00 0.01 0.00 0.00 0.01 0.00 0.00 0.00 0.00 -0.00 -0.00 0.00 0.00 0.00 0.00 -0.00 0.00 0.00 0.00 0.00 -0.00 0.00 0.00 0.00 -0.00 0.00 0.00 0.00 0.00 0.00 -0.00 0.00 -0.00 0.00 -0.00 0.00
0.01 0.01 0.01 0.00 0.01 0.00 0.00 0.00 0.00 0.00 0.00 0.00 0.00 0.00 0.00 0.00 0.00 0.00 0.00 0.00 0.00 -0.00 0.00 0.00 0.00 0.00 -0.00 0.00 -0.00 0.00 0.00 -0.00 0.00 0.00 -0.00 0.00 0.00 0.00 0.00 -0.00 0.00 0.00
0.01 0.01 0.01 0.01 0.01 0.01 0.00 0.00 0.00 0.00 0.00 0.00 0.00 0.00 0.00 -0.00 0.00 0.01 0.00 0.00 0.01 0.00 0.00 0.00 0.00 0.00 0.00 0.00 0.00 -0.00 0.00 0.00 0.00 0.00 -0.00 -0.00 0.00 0.00 0.00 0.00 -0.00 -0.00
0.01 0.01 0.01 0.01 0.01 0.01 0.01 0.01 0.01 0.00 0.00 0.01 0.00 0.00 0.00 0.01 0.00 0.01 0.00 -0.00 -0.00 0.00 0.00 0.00 0.00 0.00 0.00 0.00 0.00 0.00 0.00 0.00 0.00 0.00 0.00 0.00 0.00 0.00 -0.00 -0.00 0.00 0.00
0.00 0.01 0.00 0.01 0.01 0.01 0.01 0.01 0.01 0.01 0.00 0.00 0.00 0.00 0.00 0.00 0.00 0.00 0.00 0.00 0.00 0.00 0.00 0.01 0.00 0.00 0.00 0.00 0.00 0.00 0.00 0.00 0.00 0.00 0.00 -0.00 0.00 0.00 0.00 0.00 0.00 -0.00
0.01 0.01 0.00 0.01 0.02 0.01 0.01 0.01 0.01 0.00 0.00 0.00 0.00 0.00 0.00 0.01 0.01 0.01 0.00 0.00 0.00 0.00 0.00 0.00 0.00 0.00 -0.00 0.00 0.01 0.01 0.01 0.00 0.00 0.00 0.00 0.00 0.00 0.00 0.00 0.00 0.00 0.00
0.01 0.01 0.01 0.01 0.01 0.01 0.01 0.01 0.01 0.00 0.00 0.00 0.00 -0.00 0.00 0.01 0.05 0.08 0.00 0.00 0.00 0.04 0.27 0.00 0.00 0.00 0.00 0.00 0.00 0.01 0.01 0.00 0.00 -0.00 -0.00 0.00 0.00 0.00 -0.00 0.00 0.00 0.00
0.00 0.01 0.01 0.01 0.01 0.01 0.01 0.00 0.00 0.01 0.01 0.00 0.00 0.00 0.00 0.00 0.20 0.09 0.04 0.01 0.00 0.00 0.00 0.01 0.00 0.00 0.00 0.00 0.00 0.00 0.00 0.00 0.00 0.00 0.00 0.00 0.00 0.00 0.00 -0.00 -0.00 -0.00
MSLP
1010.19 1010.31 1010.51 1010.79 1011.27 1011.67 1012.19 1012.79 1013.07 1013.47 1013.83 1014.19 1014.55 1014.75 1014.91 1015.07 1015.11 1015.39 1015.59 1015.87 1016.15 1016.39 1016.55 1016.71 1016.87 1017.07 1017.19 1017.31 1017.47 1017.63 1017.75 1018.03 1018.23 1018.35 1018.59 1018.83 1019.03 1019.19 1019.43 1019.55 1019.67 1019.71
1009.75 1009.91 1010.03 1010.27 1010.67 1011.11 1011.51 1012.07 1012.71 1012.95 1013.35 1013.71 1013.83 1014.03 1014.15 1014.43 1014.75 1014.95 1015.31 1015.59 1015.87 1016.07 1016.23 1016.43 1016.67 1016.87 1017.11 1017.19 1017.55 1017.75 1017.79 1018.03 1018.39 1018.39 1018.75 1018.87 1018.75 1018.91 1019.19 1019.27 1019.43 1019.47
1009.27 1009.55 1009.79 1009.91 1010.03 1010.55 1010.99 1011.47 1012.15 1012.51 1012.79 1013.15 1013.19 1013.31 1013.71 1014.03 1014.27 1014.59 1014.87 1015.19 1015.51 1015.75 1016.03 1016.27 1016.51 1016.71 1016.95 1017.03 1017.47 1017.75 1017.87 1018.19 1018.39 1018.47 1018.63 1018.83 1018.83 1018.83 1018.95 1019.11 1019.19 1019.35
1008.83 1008.99 1009.27 1009.55 1009.63 1009.91 1010.39 1011.15 1011.63 1012.07 1012.35 1012.79 1012.75 1012.87 1013.35 1013.59 1013.79 1014.39 1014.67 1014.95 1015.19 1015.43 1015.79 1016.11 1016.31 1016.51 1016.71 1016.99 1017.39 1017.55 1017.79 1017.99 1018.07 1018.27 1018.59 1018.59 1018.71 1018.87 1018.95 1019.07 1019.19 1019.31
1008.31 1008.59 1008.83 1009.11 1009.31 1009.55 1009.91 1010.63 1011.19 1011.59 1012.03 1012.19 1012.31 1012.59 1012.99 1013.39 1013.59 1014.03 1014.35 1014.63 1014.83 1015.19 1015.59 1015.91 1016.15 1016.43 1016.63 1016.95 1017.19 1017.47 1017.71 1017.87 1017.95 1018.23 1018.39 1018.55 1018.63 1018.79 1018.87 1018.99 1019.15 1019.31
1007.83 1008.07 1008.27 1008.59 1008.83 1009.27 1009.59 1009.99 1010.51 1011.03 1011.51 1011.87 1012.03 1012.19 1012.63 1013.11 1013.39 1013.59 1013.95 1014.35 1014.51 1014.91 1015.35 1015.71 1015.99 1016.27 1016.55 1016.83 1017.11 1017.31 1017.55 1017.67 1017.87 1018.07 1018.23 1018.43 1018.55 1018.63 1018.79 1018.87 1018.99 1019.15
1007.55 1007.75 1008.03 1008.07 1008.43 1008.75 1009.19 1009.47 1009.87 1010.39 1010.87 1011.27 1011.59 1011.83 1012.07 1012.71 1013.19 1013.27 1013.59 1013.91 1014.31 1014.71 1015.07 1015.43 1015.79 1016.23 1016.39 1016.67 1016.91 1017.15 1017.27 1017.43 1017.67 1017.91 1018.07 1018.15 1018.31 1018.59 1018.63 1018.71 1018.79 1018.87
1007.15 1007.35 1007.67 1007.87 1008.31 1008.51 1008.91 1009.15 1009.31 1009.91 1010.35 1010.83 1011.23 1011.35 1011.59 1012.19 1012.55 1012.83 1013.15 1013.55 1013.95 1014.35 1014.71 1015.03 1015.47 1015.87 1016.19 1016.43 1016.71 1016.99 1017.19 1017.35 1017.55 1017.71 1017.83 1017.99 1018.19 1018.43 1018.51 1018.55 1018.67 1018.75
1006.83 1007.23 1007.43 1007.59 1007.87 1008.23 1008.51 1008.51 1008.71 1009.39 1009.83 1010.43 1010.79 1010.99 1011.27 1011.51 1011.95 1012.43 1012.83 1013.19 1013.63 1014.03 1014.35 1014.75 1015.15 1015.55 1015.91 1016.19 1016.43 1016.71 1016.99 1017.23 1017.35 1017.47 1017.67 1017.87 1018.11 1018.19 1018.27 1018.43 1018.67 1018.79
1006.51 1006.79 1007.11 1007.35 1007.67 1007.75 1008.07 1008.15 1008.31 1008.99 1009.43 1009.95 1010.31 1010.51 1010.95 1011.07 1011.51 1012.03 1012.47 1012.87 1013.31 1013.71 1014.03 1014.43 1014.83 1015.27 1015.67 1015.91 1016.11 1016.35 1016.67 1016.95 1017.11 1017.27 1017.43 1017.59 1017.75 1017.87 1017.99 1018.23 1018.47 1018.71
1006.07 1006.39 1006.71 1006.87 1007.11 1007.31 1007.55 1007.79 1008.03 1008.63 1009.11 1009.59 1009.99 1010.19 1010.43 1010.71 1011.31 1011.67 1012.15 1012.51 1012.99 1013.35 1013.71 1014.11 1014.47 1014.91 1015.31 1015.63 1015.87 1016.11 1016.39 1016.59 1016.79 1016.95 1017.19 1017.31 1017.43 1017.59 1017.79 1017.99 1018.23 1018.51
1005.59 1005.91 1006.15 1006.31 1006.55 1006.87 1007.19 1007.47 1007.87 1008.31 1008.83 1009.31 1009.51 1009.83 1010.11 1010.31 1010.91 1011.39 1011.75 1012.15 1012.55 1012.91 1013.23 1013.67 1014.03 1014.55 1014.91 1015.27 1015.63 1015.99 1016.19 1016.35 1016.47 1016.71 1016.91 1017.07 1017.23 1017.39 1017.63 1017.83 1018.07 1018.27
1005.03 1005.27 1005.47 1005.79 1006.15 1006.47 1006.79 1007.19 1007.63 1008.03 1008.51 1008.99 1009.11 1009.35 1009.79 1010.03 1010.47 1011.03 1011.43 1011.79 1012.19 1012.55 1012.91 1013.27 1013.63 1014.07 1014.55 1014.99 1015.39 1015.75 1015.95 1016.15 1016.35 1016.55 1016.79 1016.95 1017.07 1017.23 1017.43 1017.63 1017.87 1018.07
1004.35 1004.59 1004.95 1005.35 1005.71 1006.19 1006.55 1006.87 1007.35 1007.79 1008.23 1008.63 1008.87 1009.07 1009.39 1009.55 1010.07 1010.63 1011.11 1011.47 1011.87 1012.31 1012.59 1012.91 1013.31 1013.79 1014.19 1014.71 1015.15 1015.43 1015.71 1015.95 1016.15 1016.39 1016.55 1016.79 1016.99 1017.11 1017.27 1017.51 1017.71 1017.87
1003.71 1004.15 1004.51 1004.91 1005.35 1005.83 1006.27 1006.67 1006.99 1007.47 1008.07 1008.43 1008.55 1008.67 1009.03 1009.15 1009.59 1010.15 1010.79 1011.23 1011.63 1012.03 1012.35 1012.71 1013.15 1013.51 1013.87 1014.39 1014.91 1015.27 1015.43 1015.67 1015.91 1016.19 1016.39 1016.67 1016.95 1017.07 1017.27 1017.43 1017.63 1017.83
1003.27 1003.79 1004.15 1004.55 1005.07 1005.47 1005.79 1006.27 1006.71 1007.23 1007.75 1008.11 1008.23 1008.39 1008.83 1008.91 1009.35 1009.79 1010.31 1010.79 1011.31 1011.75 1012.07 1012.55 1012.99 1013.23 1013.63 1014.15 1014.55 1014.87 1015.15 1015.39 1015.71 1015.99 1016.23 1016.51 1016.83 1017.07 1017.31 1017.43 1017.55 1017.79
1002.87 1003.35 1003.83 1004.31 1004.63 1005.11 1005.55 1005.99 1006.43 1006.83 1007.39 1007.71 1007.95 1008.19 1008.51 1008.71 1009.07 1009.59 1009.99 1010.35 1010.79 1011.35 1011.91 1012.35 1012.67 1012.99 1013.55 1014.11 1014.55 1014.79 1014.87 1015.15 1015.51 1015.83 1016.03 1016.31 1016.67 1016.95 1017.19 1017.35 1017.51 1017.71
1002.39 1002.87 1003.43 1003.87 1004.39 1004.87 1005.23 1005.67 1006.19 1006.67 1007.11 1007.31 1007.55 1007.95 1008.23 1008.51 1008.91 1009.23 1009.63 1010.07 1010.55 1011.07 1011.59 1011.95 1012.31 1012.83 1013.47 1014.03 1014.59 1014.83 1014.83 1014.99 1015.31 1015.59 1015.91 1016.11 1016.39 1016.67 1016.91 1017.11 1017.39 1017.63
1001.87 1002.47 1003.11 1003.55 1003.95 1004.47 1004.99 1005.51 1005.99 1006.47 1006.75 1006.91 1007.27 1007.51 1007.95 1008.43 1008.59 1008.99 1009.43 1009.79 1010.31 1010.79 1011.31 1011.71 1012.03 1012.75 1013.31 1013.91 1014.47 1014.79 1014.83 1014.83 1014.91 1015.23 1015.59 1015.79 1016.03 1016.27 1016.47 1016.79 1017.11 1017.47
1001.47 1002.11 1002.67 1003.15 1003.63 1004.23 1004.75 1005.35 1005.71 1006.03 1006.27 1006.59 1006.99 1007.35 1007.75 1008.15 1008.35 1008.75 1009.11 1009.51 1009.91 1010.43 1010.95 1011.35 1011.75 1012.71 1013.35 1013.83 1014.35 1014.67 1014.67 1014.59 1014.51 1014.91 1015.11 1015.27 1015.47 1015.67 1015.99 1016.39 1016.79 1017.15
1001.11 1001.63 1002.27 1002.87 1003.43 1003.91 1004.43 1005.03 1005.39 1005.59 1005.99 1006.27 1006.43 1006.87 1007.35 1007.71 1008.07 1008.55 1008.99 1009.39 1009.79 1010.19 1010.63 1011.11 1011.47 1012.51 1013.15 1013.71 1014.23 1014.63 1014.55 1014.43 1014.27 1014.63 1014.83 1014.95 1015.11 1015.31 1015.67 1016.03 1016.43 1016.83
1000.71 1001.27 1001.87 1002.55 1003.07 1003.55 1004.11 1004.63 1004.87 1005.11 1005.47 1005.67 1006.03 1006.55 1007.03 1007.31 1007.83 1008.19 1008.67 1009.19 1009.63 1010.11 1010.51 1010.87 1011.39 1012.27 1012.91 1013.43 1014.11 1014.59 1014.63 1014.31 1014.15 1014.55 1014.71 1014.83 1015.03 1015.19 1015.47 1015.75 1016.11 1016.51
1000.23 1000.79 1001.35 1001.95 1002.55 1003.15 1003.71 1004.11 1004.43 1004.75 1004.99 1005.27 1005.83 1006.11 1006.71 1007.15 1007.47 1007.87 1008.23 1008.79 1009.39 1009.83 1010.23 1010.55 1011.31 1012.19 1012.63 1013.27 1014.03 1014.63 1014.67 1014.11 1014.15 1014.35 1014.51 1014.75 1014.99 1015.15 1015.35 1015.55 1015.83 1016.15
999.59 1000.23 1000.91 1001.51 1002.15 1002.59 1003.07 1003.47 1003.87 1004.27 1004.75 1005.03 1005.43 1005.87 1006.51 1006.95 1007.31 1007.75 1008.07 1008.39 1008.87 1009.31 1009.59 1010.11 1010.75 1011.99 1012.63 1013.11 1013.63 1014.51 1014.23 1013.79 1013.91 1014.03 1014.31 1014.59 1014.91 1015.19 1015.23 1015.39 1015.63 1016.03
999.11 999.67 1000.39 1001.11 1001.59 1002.03 1002.47 1003.03 1003.39 1003.71 1004.07 1004.71 1005.35 1005.71 1006.23 1006.67 1007.07 1007.39 1007.79 1008.07 1008.39 1008.75 1009.19 1009.63 1010.11 1011.59 1012.39 1012.71 1013.43 1014.11 1014.03 1013.51 1013.59 1013.67 1014.11 1014.31 1014.59 1015.03 1015.19 1015.27 1015.59 1016.11
998.95 999.47 1000.15 1000.83 1001.27 1001.63 1002.07 1002.47 1002.95 1003.47 1003.91 1004.55 1005.07 1005.55 1006.15 1006.47 1006.91 1007.19 1007.63 1007.87 1008.15 1008.59 1008.99 1009.19 1009.71 1011.03 1012.07 1012.63 1013.19 1013.83 1013.75 1013.19 1013.23 1013.43 1013.71 1013.95 1014.15 1014.51 1014.95 1015.15 1015.39 1015.87
Thickness
5729 5729 5728 5726 5723 5719 5716 5712 5708 5705 5702 5700 5698 5696 5693 5693 5692 5690 5687 5684 5681 5679 5677 5675 5674 5672 5671 5670 5668 5666 5665 5663 5661 5659 5657 5654 5652 5650 5647 5646 5645 5643
5730 5729 5728 5727 5725 5721 5718 5713 5708 5705 5703 5701 5700 5699 5696 5694 5693 5691 5688 5685 5682 5680 5677 5675 5673 5671 5670 5668 5665 5664 5663 5660 5658 5657 5654 5652 5651 5650 5647 5645 5644 5642
5730 5729 5728 5728 5727 5723 5720 5715 5708 5706 5704 5702 5702 5701 5698 5695 5694 5691 5688 5685 5682 5680 5677 5674 5673 5670 5669 5667 5664 5662 5660 5657 5656 5654 5652 5650 5649 5648 5646 5644 5642 5641
5730 5730 5729 5728 5727 5725 5721 5715 5709 5706 5704 5702 5703 5702 5698 5696 5695 5691 5687 5685 5682 5680 5677 5673 5671 5669 5667 5665 5662 5660 5658 5656 5655 5653 5651 5649 5648 5646 5644 5643 5641 5639
5730 5730 5729 5727 5726 5725 5721 5716 5711 5707 5704 5702 5703 5702 5698 5696 5694 5691 5687 5685 5682 5679 5676 5673 5670 5668 5665 5663 5660 5659 5656 5655 5653 5652 5649 5648 5646 5645 5643 5641 5639 5637
5729 5730 5730 5729 5726 5723 5721 5718 5713 5709 5705 5703 5702 5701 5699 5695 5692 5691 5688 5684 5682 5678 5675 5672 5669 5666 5664 5661 5659 5657 5655 5654 5652 5650 5648 5647 5645 5644 5641 5640 5638 5637
5728 5729 5729 5728 5726 5723 5720 5718 5714 5710 5707 5704 5702 5701 5699 5695 5692 5690 5688 5685 5681 5678 5674 5672 5668 5664 5662 5660 5658 5656 5655 5653 5651 5649 5648 5646 5644 5642 5641 5639 5638 5635
5727 5727 5726 5726 5724 5722 5720 5718 5716 5711 5708 5704 5702 5701 5699 5695 5693 5691 5688 5685 5681 5678 5675 5672 5668 5664 5662 5660 5658 5655 5653 5651 5650 5648 5646 5645 5643 5641 5639 5637 5635 5633
5724 5724 5724 5723 5723 5721 5719 5719 5717 5712 5708 5705 5702 5701 5699 5697 5695 5691 5688 5685 5681 5678 5675 5672 5668 5665 5662 5659 5657 5655 5653 5650 5648 5647 5645 5643 5641 5640 5638 5636 5633 5631
5723 5723 5723 5722 5722 5721 5719 5719 5717 5712 5708 5705 5702 5700 5698 5697 5695 5691 5688 5685 5681 5677 5675 5671 5668 5665 5661 5659 5657 5655 5652 5650 5648 5646 5645 5643 5641 5639 5638 5635 5632 5629
5722 5722 5722 5722 5722 5721 5720 5719 5715 5711 5708 5704 5701 5700 5697 5696 5693 5690 5687 5685 5680 5677 5675 5672 5669 5665 5661 5658 5656 5654 5652 5650 5648 5646 5644 5642 5641 5639 5636 5634 5631 5628
5721 5722 5723 5724 5723 5721 5720 5717 5713 5710 5706 5702 5701 5699 5697 5696 5692 5689 5687 5684 5680 5677 5675 5673 5669 5665 5662 5658 5655 5653 5650 5649 5648 5645 5643 5641 5639 5638 5635 5633 5630 5627
5722 5723 5725 5724 5722 5720 5718 5714 5711 5708 5704 5702 5700 5698 5696 5695 5692 5688 5686 5683 5680 5677 5674 5673 5670 5666 5662 5658 5654 5651 5649 5647 5646 5644 5642 5640 5638 5636 5634 5631 5629 5627
5724 5725 5724 5722 5721 5718 5715 5712 5709 5706 5703 5700 5699 5697 5696 5695 5692 5688 5685 5682 5679 5676 5674 5672 5669 5665 5662 5657 5653 5650 5648 5647 5644 5642 5640 5637 5635 5634 5632 5629 5627 5625
5724 5723 5722 5721 5719 5716 5713 5710 5707 5704 5701 5698 5698 5697 5695 5694 5691 5687 5684 5681 5678 5675 5673 5671 5668 5665 5661 5656 5652 5649 5647 5645 5643 5641 5638 5635 5633 5631 5629 5627 5625 5622
5722 5720 5720 5719 5717 5714 5711 5708 5705 5702 5699 5697 5697 5696 5693 5692 5691 5686 5683 5680 5677 5674 5672 5669 5666 5664 5660 5655 5651 5648 5647 5644 5641 5639 5636 5633 5630 5628 5625 5624 5622 5620
5719 5718 5718 5717 5714 5712 5709 5706 5703 5700 5697 5696 5696 5693 5692 5691 5688 5684 5682 5680 5676 5673 5671 5667 5665 5662 5657 5652 5648 5646 5644 5643 5640 5637 5634 5631 5628 5626 5623 5621 5619 5617
5717 5717 5716 5714 5712 5709 5707 5704 5701 5697 5696 5696 5695 5693 5691 5689 5686 5683 5680 5678 5675 5672 5669 5667 5665 5660 5655 5649 5645 5643 5642 5641 5638 5635 5632 5630 5627 5624 5622 5619 5617 5614
5717 5716 5713 5712 5710 5707 5704 5701 5697 5695 5696 5696 5694 5691 5689 5686 5683 5681 5679 5676 5674 5670 5667 5666 5663 5657 5652 5647 5642 5640 5639 5639 5637 5634 5632 5629 5627 5624 5622 5619 5616 5613
5716 5714 5711 5710 5708 5704 5701 5698 5695 5695 5696 5694 5691 5689 5687 5685 5682 5679 5677 5675 5673 5669 5666 5665 5661 5654 5648 5644 5640 5637 5637 5638 5637 5634 5631 5630 5628 5626 5623 5619 5615 5612
5714 5712 5710 5708 5705 5702 5699 5696 5694 5694 5694 5693 5691 5689 5687 5684 5681 5677 5674 5672 5670 5667 5664 5662 5659 5652 5646 5642 5638 5635 5635 5636 5636 5633 5631 5630 5628 5625 5622 5619 5615 5612
5712 5710 5708 5706 5703 5701 5698 5695 5694 5695 5694 5693 5690 5688 5685 5683 5679 5676 5673 5670 5667 5665 5662 5660 5656 5650 5645 5641 5636 5632 5632 5633 5633 5631 5629 5628 5626 5623 5620 5618 5614 5611
5712 5709 5707 5704 5702 5700 5697 5696 5696 5695 5694 5692 5689 5685 5683 5681 5678 5674 5672 5669 5665 5663 5661 5658 5654 5647 5643 5640 5633 5628 5629 5631 5630 5629 5627 5625 5623 5620 5617 5616 5612 5609
5712 5709 5706 5704 5702 5700 5698 5696 5696 5695 5693 5690 5687 5683 5681 5679 5675 5672 5670 5667 5665 5663 5661 5659 5653 5645 5640 5638 5633 5627 5627 5630 5629 5628 5626 5622 5619 5616 5614 5613 5610 5607
5710 5708 5705 5703 5701 5700 5699 5698 5697 5695 5692 5687 5683 5681 5679 5677 5673 5670 5668 5667 5665 5662 5661 5659 5654 5644 5638 5637 5632 5626 5626 5628 5628 5626 5624 5620 5617 5614 5610 5608 5607 5602
5706 5706 5704 5701 5700 5700 5699 5698 5696 5693 5690 5685 5682 5680 5677 5674 5671 5668 5666 5665 5663 5660 5659 5658 5654 5644 5637 5634 5631 5625 5624 5627 5627 5625 5622 5618 5615 5612 5608 5606 5604 5600